RH
44 46 47 49 52 51 50 53 62 64 63 64 66 77 93 94 91 96 99 96 98 80 68 63 58 53 46 39 38 42 46 45 46 39 35 32 34 35 34 37 39 42 43
45 43 41 43 47 48 57 64 66 70 66 71 89 96 88 89 92 96 95 79 75 76 74 68 59 48 42 40 41 40 38 37 37 39 35 36 36 36 36 39 40 38 39
42 40 40 41 48 61 65 58 56 56 55 55 62 71 71 67 51 44 44 50 49 52 52 50 46 45 45 44 44 44 42 39 38 37 36 35 35 35 36 36 38 40 40
39 42 41 45 50 56 56 54 48 45 42 38 36 38 40 41 42 41 50 50 49 45 45 46 46 47 48 48 48 47 45 43 40 39 38 36 35 34 34 36 38 38 39
40 42 41 45 48 53 52 47 43 39 36 35 37 38 40 42 44 59 60 57 54 50 47 46 44 45 49 53 54 54 54 53 48 44 42 39 36 35 36 36 40 42 44
39 40 41 46 56 55 48 44 33 34 36 40 41 42 43 43 53 57 63 64 57 52 49 47 46 46 47 49 54 59 61 62 59 57 53 50 48 51 51 54 55 57 62
36 37 40 53 57 50 46 35 34 36 39 41 42 43 44 46 57 59 68 71 65 59 55 52 49 45 46 47 50 67 75 86 87 76 72 66 63 62 62 65 63 64 64
36 40 50 52 53 46 42 34 36 38 40 42 42 46 52 55 66 78 86 72 65 62 58 56 54 51 51 66 70 75 79 73 80 87 86 74 67 66 65 65 70 74 75
35 33 41 52 56 46 40 38 40 40 42 41 46 58 64 70 72 92 83 73 72 70 66 70 72 70 77 83 85 84 77 73 78 90 88 81 77 73 72 74 80 92 87
38 34 40 45 47 48 41 41 42 40 41 51 65 68 80 76 88 81 84 73 81 80 75 72 76 83 86 91 98 98 94 76 74 81 82 75 82 95 78 90 81 76 76
40 41 52 70 64 48 43 43 42 42 49 78 87 83 76 82 75 79 84 82 78 92 85 84 80 97 96 96 98 97 93 95 88 86 82 83 81 76 75 86 91 87 83
61 67 87 86 61 49 45 42 44 45 57 72 85 81 70 70 72 83 88 84 93 92 89 87 97 96 97 98 97 98 97 96 94 94 96 93 95 90 82 80 84 99 95
77 88 87 62 59 45 47 43 47 53 65 81 68 70 64 64 68 70 81 89 90 93 96 97 94 95 97 95 96 90 94 98 98 93 91 91 94 93 86 84 90 96 96
68 65 62 52 52 50 45 44 48 59 76 68 63 61 64 73 63 72 86 92 90 96 96 96 97 96 94 96 96 97 98 97 94 95 94 92 93 88 95 97 91 90 96
62 55 53 51 51 54 52 53 56 69 78 71 67 71 78 74 74 87 95 94 96 97 96 98 96 95 95 95 93 95 96 92 94 96 95 93 96 90 98 95 79 86 91
72 60 61 66 67 72 57 59 67 79 82 78 75 84 81 80 87 90 91 94 98 99 97 94 94 95 95 94 94 92 90 93 89 91 94 97 93 92 97 92 84 77 76
83 77 72 72 79 71 72 78 74 78 91 96 90 84 85 84 86 88 89 90 96 96 93 93 94 95 95 94 93 92 91 91 94 96 94 95 93 96 97 91 96 91 78
81 75 88 88 85 84 86 83 80 83 78 70 90 75 79 87 85 86 87 88 88 91 92 92 93 94 81 77 79 87 92 92 91 93 97 94 95 97 93 90 95 84 82
76 80 92 97 93 91 92 86 84 83 74 66 69 63 68 80 98 97 92 90 87 87 88 91 91 82 84 84 88 89 92 93 93 94 93 97 94 95 90 89 94 94 81
63 78 82 90 93 89 88 88 84 81 74 67 71 74 72 79 83 86 88 88 79 73 75 73 77 83 88 87 88 88 89 86 89 90 93 96 96 92 98 90 90 88 87
68 84 92 84 93 87 84 90 82 85 80 72 74 95 72 86 84 88 88 83 77 77 80 80 81 84 86 86 85 88 86 88 85 84 89 93 94 93 91 90 89 90 85
82 94 98 93 90 92 92 84 91 88 87 79 77 82 84 97 84 85 87 88 85 84 85 86 85 84 86 90 89 89 85 86 88 90 88 85 84 84 92 95 86 90 87
87 94 96 94 94 94 94 95 95 93 89 87 84 80 82 76 85 86 91 95 93 89 91 90 92 91 92 96 94 91 88 94 98 96 95 88 77 77 80 76 81 78 84
90 93 94 93 95 91 92 94 95 95 93 90 91 92 86 76 78 86 97 96 97 94 92 94 93 93 94 96 96 97 95 64 84 85 98 89 80 78 77 73 76 72 72
95 93 94 93 95 94 92 93 96 95 95 93 94 93 87 81 77 78 82 87 94 94 92 93 96 95 96 97 81 53 30 29 38 38 100 85 84 82 82 74 79 72 72
93 91 94 94 93 95 96 92 96 95 95 94 94 94 90 83 79 80 82 85 85 86 89 88 93 96 97 90 79 37 27 26 26 34 95 89 86 82 86 79 80 73 71
Wind_Speed
15 17 18 18 17 17 19 19 18 19 18 17 14 13 10 14 16 16 16 17 12 13 13 14 16 17 18 19 18 18 18 18 13 20 21 20 19 21 23 21 19 20 22
17 19 21 19 18 20 17 16 16 18 19 18 15 13 19 18 14 13 15 14 14 17 18 19 20 20 20 19 19 19 20 22 22 19 22 22 23 23 23 22 23 23 23
20 21 20 20 18 17 15 14 15 17 19 19 18 17 17 17 20 19 17 16 18 19 20 22 22 21 21 20 20 21 21 22 23 23 22 23 24 23 23 23 23 23 25
20 19 20 18 15 13 14 15 17 19 21 21 21 21 19 20 20 18 14 19 21 22 22 22 22 22 22 22 21 20 21 22 23 24 24 24 24 24 24 22 22 23 23
20 20 20 16 14 15 16 17 18 19 20 19 19 19 19 20 15 10 15 20 22 24 25 25 25 23 20 22 24 25 23 22 23 22 22 23 21 20 19 19 20 19 20
20 21 19 14 13 15 16 17 18 19 19 18 19 20 19 20 15 14 16 20 24 25 25 25 25 24 23 20 17 20 23 22 23 24 24 22 24 23 23 21 20 18 11
22 21 17 14 14 16 17 17 18 18 19 19 20 19 19 20 14 18 21 21 24 25 25 26 26 25 22 23 22 10 16 20 24 25 25 26 24 23 24 24 24 22 21
25 20 16 15 16 17 17 17 17 19 19 20 20 18 19 21 18 18 18 24 23 25 25 25 26 26 24 20 20 20 21 21 22 24 27 29 26 26 25 26 24 24 24
25 21 14 16 18 16 16 16 18 19 19 20 18 18 22 22 22 17 21 22 23 24 24 23 22 24 24 21 21 22 23 23 21 22 27 31 33 34 34 28 23 20 15
25 19 16 17 16 14 14 17 17 20 20 18 16 19 19 22 18 19 17 21 22 23 22 22 23 24 24 24 18 18 18 21 23 22 21 22 23 24 26 29 27 23 21
24 16 16 15 15 13 14 17 19 21 19 12 14 17 20 18 20 19 14 17 22 24 24 23 22 9 15 15 15 18 21 20 20 21 22 22 20 20 21 22 29 29 24
21 15 13 12 11 14 15 18 18 20 16 15 16 18 19 19 18 16 15 20 23 24 24 24 19 23 19 19 16 15 16 17 17 18 17 17 15 16 16 17 19 22 26
22 15 13 11 12 14 15 17 18 16 13 14 17 19 20 20 20 18 20 23 23 24 22 20 22 13 17 15 11 14 13 13 11 13 13 13 12 13 14 14 15 17 20
18 17 14 13 9 14 14 16 13 13 12 15 18 19 20 20 21 20 24 24 23 20 21 19 14 13 14 16 10 8 8 8 10 12 12 12 13 13 15 12 11 11 12
16 16 14 12 11 12 14 11 12 9 6 12 14 15 18 19 21 23 22 24 21 20 20 12 12 13 14 14 11 10 9 10 10 11 12 12 11 12 14 6 8 8 8
15 13 12 10 10 9 11 12 11 10 11 11 9 9 13 16 20 20 21 21 16 16 14 11 12 13 14 15 15 15 13 13 14 13 13 12 12 14 14 7 5 6 7
11 11 10 8 7 8 9 10 12 9 12 9 8 8 9 15 18 17 19 17 12 13 12 12 13 14 14 14 15 16 16 15 14 13 13 13 13 13 15 12 10 6 6
10 10 8 8 5 7 8 9 10 10 13 12 8 10 10 14 15 14 16 14 11 11 12 13 13 14 16 16 16 16 16 15 15 14 13 13 13 13 11 12 11 10 10
9 8 7 6 6 7 8 8 9 10 12 12 13 11 14 16 12 9 12 12 12 12 12 13 13 14 14 15 16 16 16 15 15 15 15 14 13 12 11 11 11 11 11
8 7 7 6 7 7 7 7 8 9 11 12 12 12 13 14 12 11 10 10 11 11 12 13 13 13 14 14 15 16 17 16 16 16 16 15 14 12 11 11 11 10 10
8 7 7 8 7 7 8 8 8 9 10 11 10 5 11 9 11 10 10 9 10 10 11 11 12 12 13 13 14 15 16 16 16 17 17 17 16 14 13 11 11 10 10
8 9 7 8 7 7 7 9 8 9 9 10 10 8 7 7 9 8 8 8 8 8 9 9 10 10 11 12 13 14 15 15 15 17 18 18 16 14 14 12 12 11 11
8 8 9 10 8 7 9 9 9 9 9 10 9 9 8 8 8 8 7 7 7 8 8 8 8 9 10 10 11 12 13 14 14 15 15 17 15 15 14 13 11 12 12
8 10 11 10 10 8 9 9 9 9 9 9 9 8 8 8 8 7 7 7 7 7 7 7 7 8 9 10 10 10 11 13 13 14 12 14 13 13 13 12 13 11 12
8 9 9 10 10 9 9 10 10 9 9 9 8 7 8 8 8 8 8 7 7 7 8 7 7 8 8 9 11 12 12 12 12 14 11 12 12 12 12 11 12 11 11
9 9 10 10 10 10 9 9 9 9 9 9 8 8 8 8 8 8 7 7 7 7 7 7 6 7 8 8 11 12 12 12 12 11 11 10 11 11 11 11 12 10 11
Wind_Direction
324 325 321 319 319 319 317 323 329 321 322 320 323 321 329 323 318 307 298 302 309 300 298 297 291 291 287 284 278 266 255 249 260 272 274 276 265 260 267 272 265 260 258
323 320 316 315 312 318 328 319 323 312 309 315 320 318 316 311 311 317 311 308 302 299 297 294 292 294 293 287 281 279 280 283 283 281 280 284 281 279 275 273 270 266 263
318 316 314 312 321 321 319 319 315 315 317 314 313 308 305 302 306 307 297 292 291 289 291 292 293 295 292 289 288 285 283 282 284 284 282 279 278 277 278 275 269 265 263
315 312 313 320 322 305 306 312 315 317 318 318 315 312 310 309 307 305 312 312 306 300 296 290 288 285 284 286 283 284 287 288 282 278 276 273 270 269 267 268 268 266 263
317 312 316 315 312 311 313 316 317 316 314 314 313 311 311 310 316 320 313 312 307 301 296 290 285 285 286 287 283 281 279 281 279 277 274 272 270 270 268 274 278 280 276
309 313 312 309 313 307 310 315 316 315 316 315 313 312 312 312 313 316 318 312 306 300 298 295 291 289 283 283 279 266 265 274 279 283 284 288 289 292 292 292 286 283 278
306 302 313 304 297 304 307 315 315 317 315 314 312 312 315 312 312 320 318 316 305 299 297 297 294 291 293 286 284 273 274 266 257 263 269 269 273 274 276 275 274 274 273
307 309 300 286 289 296 307 311 318 314 316 315 315 319 318 314 327 324 327 318 306 302 299 298 298 295 295 308 299 291 282 275 265 260 257 263 266 270 269 271 275 280 277
308 312 306 286 281 297 304 314 314 315 314 316 322 322 316 314 315 326 324 315 310 309 305 301 297 292 289 289 287 284 283 279 277 274 272 271 270 269 267 272 273 275 271
308 305 297 284 286 289 304 311 312 313 316 322 311 313 307 305 308 316 312 315 312 307 308 303 299 292 288 281 281 282 285 288 293 290 287 281 275 266 261 254 253 257 261
313 308 301 294 290 301 303 306 313 319 324 331 313 312 310 312 312 316 318 317 312 311 308 304 300 316 333 319 304 289 283 289 288 286 284 281 276 271 265 255 240 242 248
334 333 321 303 299 293 302 308 318 323 326 326 320 317 316 314 322 327 331 326 319 313 308 303 308 321 321 315 302 290 292 291 280 276 277 279 275 270 268 264 256 250 245
313 309 294 299 282 290 308 316 323 319 329 323 318 316 318 329 325 325 335 325 323 318 313 323 319 322 317 311 310 300 294 282 290 297 296 298 303 300 291 281 271 261 253
320 317 311 297 321 308 311 319 324 329 330 322 323 326 328 327 326 335 330 328 327 326 324 315 319 332 326 316 320 326 314 321 313 311 315 310 307 306 296 281 282 267 249
322 317 312 308 306 323 315 333 324 324 312 320 320 322 327 325 330 328 329 331 330 328 323 330 348 349 341 343 352 352 349 349 344 335 329 327 326 323 313 295 306 290 261
321 316 329 318 330 321 319 323 327 315 315 315 302 322 328 323 327 329 332 334 336 341 337 360 356 352 349 351 358 356 1 358 351 342 340 341 341 332 330 321 306 310 300
321 324 317 316 316 322 326 324 322 325 318 292 300 332 326 333 332 332 336 336 340 357 0 0 358 356 350 352 1 357 350 353 348 348 347 347 346 337 340 353 360 313 305
311 305 290 326 329 324 324 315 317 322 320 331 317 322 335 336 331 336 344 344 356 3 1 356 354 352 356 355 356 353 349 354 355 352 355 353 347 341 353 356 358 357 353
307 307 315 303 303 305 301 306 309 315 317 324 327 328 341 335 323 334 353 358 354 358 357 354 353 355 354 354 352 350 348 359 359 356 359 355 353 352 359 0 357 356 355
297 295 293 291 292 299 305 305 308 315 319 327 327 335 338 337 343 347 353 358 355 354 353 352 352 352 353 353 352 352 351 1 3 1 355 352 358 1 359 359 1 359 359
298 289 268 282 289 301 305 301 304 309 314 321 325 334 349 327 338 340 344 352 352 351 351 350 350 352 354 353 354 354 355 357 0 1 355 353 357 3 1 4 0 359 359
295 291 275 269 282 289 303 303 292 299 305 314 318 321 326 317 331 331 337 341 344 347 347 346 350 352 353 353 353 353 353 355 354 354 351 349 356 1 357 4 7 6 8
281 287 284 277 272 285 291 292 291 291 302 309 308 309 317 318 317 320 323 327 332 338 340 342 344 348 351 354 354 354 351 347 343 342 341 346 352 357 356 359 4 6 1
279 285 276 273 268 275 286 294 296 286 284 293 299 301 304 308 305 306 305 313 317 325 329 331 335 338 343 349 349 351 345 347 348 341 350 342 350 353 355 360 354 6 1
274 287 275 273 275 276 285 293 295 289 285 286 290 293 297 296 293 295 296 300 304 311 317 321 322 332 336 341 341 344 344 349 351 352 358 348 351 355 353 357 353 351 4
268 281 279 278 277 282 279 291 294 291 291 286 285 285 286 289 287 285 285 287 292 297 302 308 311 322 330 334 331 341 348 349 351 357 10 356 358 358 357 357 358 359 1